STARLINK-33683, 63573

Orbit data source: Space-Track

STARLINK-33683, 63573 is a payload satellite owned by SpaceX/Seattle (US) in LEO that was launched on Mon, 14 Apr 2025 UTC via an FALCON 9 launch vehicle from the Air Force Eastern Test Range (AFETR). Payload-class satellites include a variety of spacecraft equipped with specific instruments for various scientific and technological missions. These include communications satellites like Starlink; space stations such as the ISS; scientific satellites like the Hubble; Earth observation satellites from companies like Planet Labs, Umbra, and HawkEye 360; GPS; miniature CubeSats for education and research; and military/defense satellites.

Loading next visibility...
Identifier
63573, 2025-076E
Orbit
LEO
Country
Flag of USUS
Related business
Manufacturer
SpaceX/Seattle
Mission
Operational Commercial Communications
Bus & Motor
STARLINK V2MO, Unknown motor
Mass
575 kg wet, ~530 kg dry
Launch date (UTC)
2025-04-14 (1 year ago)
Launch vehicle
FALCON 9
Launch site
Air Force Eastern Test Range (AFETR)
Object type
Payload
Rocket body
Debris
Shape & HBR
Box + 2 Pan, 17.7 m
Radar Cross Section
36.964 m², Large (>1 m²)

Expand to show TLE details & history
Last TLE update: 15 hours ago

TLE from 15 hours ago
0 STARLINK-33683
1 63573U 25076E   26144.77938932  .00021641  00000-0  79322-3 0  9999
2 63573  42.9990 252.3016 0001464 312.7317  47.3411 15.27596613 63461
Epoch: 2026-05-24T18:42Z
TLE epoch observation values (Epoch: 2026-05-24T18:42:19.237Z)
Latitude
-0.00003°
Longitude
89.34478°
Altitude
482.094 km
Speed
7.627 km/s
True Right ascension
16h 49m 12s
True Declination
0° 00' 00"
Sunlit
Object was in full shadow at epoch
Visualization orbit readout
Latitude
Unknown
Longitude
Unknown
Altitude
Unknown
Speed
Unknown
Apparent Right ascension
Unknown
Apparent Declination
Unknown
Sunlit
N/A
Visualization observer readout
Local Sidereal Time
18:25:42
Azimuth
Unknown
Elevation
Unknown
Doppler factor
Unknown
Orbital elements
Apogee altitude
485.949 km
Perigee altitude
483.94 km
Semi-major axis
6,863.082 km
Eccentricity
0.00015
Inclination
42.999°
RAAN
252.3016°
Arg. of periapsis
312.7317°
True anomaly
47.35344°
Mean anomaly
47.3411°
Eccentric anomaly
47.34727°
Mean motion
3.81737 °/min
Orbital period
94.31 mins
BSTAR
0.00079322
Loading maneuver chart data...
Computing Atmospheric mass density...
Loading historical data...
Loading historical data...
Loading historical data...
Loading historical data...
Loading historical data...
Loading historical data...
Loading historical data...

Documentation

Showing up to 5 results
|